Stations météo

réclame
Mon MeteoGroup
A12-CPP, Pays-Bas (6205): Température de l'air & dewpoint: 04.12.2019 16:00:00 - 10.12.2019 16:00:00 (CET)A12-CPP, Pays-Bas (6205): Vitesse du vent & gusts: 04.12.2019 16:00:00 - 10.12.2019 16:00:00 (CET)A12-CPP, Pays-Bas (6205): Direction du vent: 04.12.2019 16:00:00 - 10.12.2019 16:00:00 (CET)A12-CPP, Pays-Bas (6205): reduced air pressure: 04.12.2019 16:00:00 - 10.12.2019 16:00:00 (CET)A12-CPP, Pays-Bas (6205): visibility: 04.12.2019 16:00:00 - 10.12.2019 16:00:00 (CET)
Date & Time tt [°C] td [°C] ff [km/h] ff [knt] fx [km/h] fx [knt] dd ppp [hPa] vv [km]
10.12.2019 16:00:00 - - - - - - - - -
10.12.2019 15:00:00 8,9 6,3 80 43 86 47 S 1003,4 10
10.12.2019 14:00:00 8,8 5,4 72 39 79 43 S 1005,3 10
10.12.2019 13:00:00 8,2 4,8 70 38 76 41 S 1007,8 10
10.12.2019 12:00:00 7,8 3,4 67 36 76 41 S 1010,2 10
10.12.2019 11:00:00 7,8 3,4 61 33 72 39 S 1012,1 10
10.12.2019 10:00:00 7,4 2,3 55 30 65 35 SSW 1013,3 10
10.12.2019 09:00:00 7,2 1,7 48 26 50 27 S 1014,8 10
10.12.2019 08:00:00 7,4 1,9 41 22 47 25 SSW 1015,8 10
10.12.2019 07:00:00 7,4 0,9 35 19 43 23 SW 1016,5 10
10.12.2019 06:00:00 7,4 0,4 31 17 32 18 SW 1017,3 10
10.12.2019 05:00:00 7,2 0,6 24 13 25 14 WSW 1018,1 10
10.12.2019 04:00:00 6,9 -1,1 18 10 22 12 W 1018,5 10
10.12.2019 03:00:00 6,8 -1,2 21 11 29 16 NW 1018,5 10
10.12.2019 02:00:00 6,7 -1,1 28 15 40 21 NNW 1017,9 10
10.12.2019 01:00:00 6,6 -0,5 39 21 47 25 NNW 1017,6 10
10.12.2019 00:00:00 6,5 -0,9 48 26 54 29 N 1016,9 10
09.12.2019 23:00:00 6,3 0,8 44 24 58 31 NNW 1016,2 10
09.12.2019 22:00:00 6,7 -0,2 54 29 61 33 NNW 1015,2 10
09.12.2019 21:00:00 6,6 -0,8 61 33 72 39 NNW 1014,0 10
09.12.2019 20:00:00 6,4 0,0 74 40 76 41 N 1012,1 10
09.12.2019 19:00:00 6,8 -2,0 70 38 76 41 NNW 1010,4 10
09.12.2019 18:00:00 6,2 -1,0 70 38 86 47 N 1009,0 10
09.12.2019 17:00:00 6,8 0,8 76 41 86 47 NNW 1006,7 10
09.12.2019 16:00:00 6,2 0,7 78 42 83 45 NNW 1005,1 10
09.12.2019 15:00:00 5,3 1,2 78 42 83 45 N 1003,2 10
09.12.2019 14:00:00 7,1 1,2 83 45 90 49 N 1001,6 10
09.12.2019 13:00:00 7,8 0,6 74 40 79 43 N 999,1 10
09.12.2019 12:00:00 8,0 2,3 70 38 83 45 N 997,4 10
09.12.2019 11:00:00 7,3 2,6 80 43 79 43 N 995,0 10
09.12.2019 10:00:00 8,4 3,6 67 36 72 39 N 992,6 10
09.12.2019 09:00:00 7,3 4,6 61 33 65 35 N 990,4 7
09.12.2019 08:00:00 7,7 4,4 39 21 47 25 NW 988,5 10
09.12.2019 07:00:00 8,4 5,5 34 18 40 21 WNW 987,0 10
09.12.2019 06:00:00 7,5 4,4 44 24 50 27 W 985,8 9
09.12.2019 05:00:00 8,1 4,6 55 30 61 33 WSW 984,6 10
09.12.2019 04:00:00 8,3 5,7 63 34 65 35 WSW 983,7 10
09.12.2019 03:00:00 7,5 5,0 65 35 72 39 WSW 983,4 10
09.12.2019 02:00:00 7,9 4,5 67 36 68 37 WSW 982,7 10
09.12.2019 01:00:00 8,2 4,6 65 35 68 37 SW 982,7 10
09.12.2019 00:00:00 8,3 3,9 63 34 72 39 WSW 982,8 10
08.12.2019 23:00:00 8,3 3,7 72 39 72 39 WSW 983,0 10
08.12.2019 22:00:00 8,4 3,7 72 39 76 41 WSW 983,4 10
08.12.2019 21:00:00 8,6 4,3 72 39 76 41 WSW 983,8 10
08.12.2019 20:00:00 8,5 3,7 72 39 76 41 WSW 984,0 10
08.12.2019 19:00:00 8,5 3,8 76 41 79 43 WSW 983,8 10
08.12.2019 18:00:00 8,7 3,7 76 41 79 43 WSW 984,3 10
08.12.2019 17:00:00 8,5 4,4 74 40 76 41 WSW 984,7 10
08.12.2019 16:00:00 8,7 4,5 70 38 76 41 WSW 984,7 10
08.12.2019 15:00:00 8,8 3,6 67 36 72 39 WSW 985,7 10
08.12.2019 14:00:00 9,0 5,0 72 39 76 41 WSW 986,1 10
08.12.2019 13:00:00 9,3 3,9 72 39 76 41 WSW 986,1 10
08.12.2019 12:00:00 9,4 4,2 67 36 72 39 W 986,5 10
08.12.2019 11:00:00 9,5 5,0 67 36 72 39 W 986,3 10
08.12.2019 10:00:00 9,9 6,0 63 34 72 39 W 985,8 10
08.12.2019 09:00:00 10,2 6,9 67 36 83 45 W 985,2 10
08.12.2019 08:00:00 10,4 8,7 74 40 86 47 WSW 984,3 10
08.12.2019 07:00:00 10,1 9,1 85 46 90 49 SW 984,0 9
08.12.2019 06:00:00 10,4 8,8 85 46 94 51 SW 984,5 9
08.12.2019 05:00:00 9,9 8,7 83 45 90 49 SW 986,1 10
08.12.2019 04:00:00 9,1 8,3 78 42 83 45 SW 988,0 4,5
08.12.2019 03:00:00 9,1 7,8 81 44 86 47 SW 989,9 10
08.12.2019 02:00:00 9,2 7,9 78 42 83 45 SW 991,8 10
08.12.2019 01:00:00 9,2 8,0 72 39 76 41 SW 994,4 10
08.12.2019 00:00:00 9,3 8,1 67 36 68 37 SW 996,2 10
07.12.2019 23:00:00 8,9 7,9 65 35 65 35 SW 997,8 10
07.12.2019 22:00:00 9,1 7,4 61 33 61 33 SW 999,7 10
07.12.2019 21:00:00 9,1 7,2 57 31 61 33 SW 1001,4 10
07.12.2019 20:00:00 9,1 7,6 48 26 50 27 SW 1002,9 10
07.12.2019 19:00:00 9,0 7,7 46 25 47 25 SW 1004,0 10
07.12.2019 18:00:00 8,9 7,5 35 19 40 21 WSW 1004,3 10
07.12.2019 17:00:00 9,0 7,5 31 17 32 18 WSW 1005,1 10
07.12.2019 16:00:00 8,9 8,0 29 16 43 23 W 1005,1 10
07.12.2019 15:00:00 8,6 7,7 39 21 40 21 W 1005,4 10
07.12.2019 14:00:00 8,8 7,5 31 17 32 18 WSW 1005,1 10
07.12.2019 13:00:00 8,7 7,3 31 17 32 18 W 1005,4 10
07.12.2019 12:00:00 8,6 7,5 29 16 - - W 1005,2 10
07.12.2019 11:00:00 - - - - - - - - -
07.12.2019 10:00:00 9,0 5,1 34 18 40 21 NW 1004,8 10
07.12.2019 09:00:00 9,0 5,1 37 20 40 21 NW 1004,6 10
07.12.2019 08:00:00 8,5 6,0 42 23 43 23 NW 1003,5 10
07.12.2019 07:00:00 8,5 7,0 31 17 47 25 NW 1002,8 10
07.12.2019 06:00:00 8,8 6,4 34 18 32 18 NW 1001,5 10
07.12.2019 05:00:00 8,6 6,5 31 17 40 21 NNW 1000,8 10
07.12.2019 04:00:00 8,5 6,6 39 21 40 21 NNW 999,6 10
07.12.2019 03:00:00 8,8 6,3 46 25 54 29 NNW 998,7 10
07.12.2019 02:00:00 9,0 6,9 52 28 54 29 NW 997,2 10
07.12.2019 01:00:00 9,6 7,7 54 29 50 27 NW 996,4 10
07.12.2019 00:00:00 9,7 8,0 46 25 47 25 WNW 995,7 10
06.12.2019 23:00:00 9,6 8,2 50 27 54 29 NW 994,7 10
06.12.2019 22:00:00 9,0 8,7 52 28 61 33 WNW 993,8 7
06.12.2019 21:00:00 9,1 8,1 54 29 65 35 W 993,0 9
06.12.2019 20:00:00 9,7 8,1 48 26 47 25 W 992,7 10
06.12.2019 19:00:00 9,7 8,3 44 24 47 25 W 992,3 10
06.12.2019 18:00:00 9,9 9,0 48 26 50 27 WSW 992,0 10
06.12.2019 17:00:00 10,1 9,4 52 28 54 29 WSW 991,5 10
06.12.2019 16:00:00 10,3 9,5 54 29 54 29 WSW 991,6 10
06.12.2019 15:00:00 10,1 9,6 55 30 54 29 SW 991,9 10
06.12.2019 14:00:00 10,1 9,6 52 28 54 29 SW 992,4 10
06.12.2019 13:00:00 10,0 9,5 50 27 72 39 SW 993,5 10
06.12.2019 12:00:00 10,0 9,5 52 28 54 29 SW 994,5 10
06.12.2019 11:00:00 10,0 9,5 46 25 47 25 SW 996,0 10
06.12.2019 10:00:00 10,1 9,5 50 27 50 27 SW 996,3 10
06.12.2019 09:00:00 10,1 9,6 54 29 54 29 SW 996,8 10
06.12.2019 08:00:00 10,2 9,6 50 27 54 29 WSW 997,0 10
06.12.2019 07:00:00 10,4 9,5 55 30 58 31 WSW 997,2 10
06.12.2019 06:00:00 10,5 9,5 59 32 61 33 WSW 997,2 10
06.12.2019 05:00:00 10,4 9,3 67 36 68 37 WSW 997,4 10
06.12.2019 04:00:00 10,6 9,2 72 39 76 41 WSW 996,9 10
06.12.2019 03:00:00 10,9 8,9 78 42 83 45 WSW 996,5 10
06.12.2019 02:00:00 10,4 8,7 81 44 86 47 WSW 995,7 10
06.12.2019 01:00:00 10,6 8,4 87 47 90 49 WSW 996,0 10
06.12.2019 00:00:00 10,1 8,5 85 46 86 47 SW 996,4 7
05.12.2019 23:00:00 9,4 8,2 85 46 94 51 SW 997,1 6
05.12.2019 22:00:00 9,3 7,8 80 43 86 47 SW 997,8 8
05.12.2019 21:00:00 8,8 7,7 81 44 86 47 SW 999,2 7
05.12.2019 20:00:00 8,5 7,3 81 44 86 47 SW 1000,5 4,0
05.12.2019 19:00:00 8,6 6,5 76 41 79 43 SW 1001,6 10
05.12.2019 18:00:00 8,7 5,7 68 37 76 41 SW 1003,2 10
05.12.2019 17:00:00 8,4 5,4 68 37 72 39 SW 1004,9 10
05.12.2019 16:00:00 8,5 5,5 59 32 65 35 SW 1006,0 10
05.12.2019 15:00:00 8,8 4,7 61 33 65 35 SW 1007,6 10
05.12.2019 14:00:00 8,9 5,4 59 32 65 35 SW 1008,9 10
05.12.2019 13:00:00 8,7 6,0 61 33 61 33 SW 1010,1 10
05.12.2019 12:00:00 8,6 5,9 57 31 58 31 SW 1010,9 10
05.12.2019 11:00:00 8,6 5,7 55 30 58 31 WSW 1011,9 10
05.12.2019 10:00:00 8,8 5,7 54 29 58 31 WSW 1012,2 10
05.12.2019 09:00:00 8,8 5,7 57 31 58 31 WSW 1012,3 10
05.12.2019 08:00:00 8,6 6,1 54 29 54 29 WSW 1012,2 10
05.12.2019 07:00:00 8,6 5,8 52 28 50 27 WSW 1012,6 10
05.12.2019 06:00:00 8,7 6,1 50 27 50 27 WSW 1013,0 10
05.12.2019 05:00:00 8,7 6,3 44 24 43 23 WSW 1013,3 10
05.12.2019 04:00:00 8,8 6,7 44 24 47 25 WSW 1013,7 10
05.12.2019 03:00:00 8,8 7,1 46 25 47 25 WSW 1013,7 10
05.12.2019 02:00:00 8,8 6,9 50 27 47 25 WSW 1014,3 10
05.12.2019 01:00:00 8,8 6,9 52 28 50 27 WSW 1014,7 10
05.12.2019 00:00:00 8,9 6,7 52 28 50 27 WSW 1015,1 10
04.12.2019 23:00:00 8,6 6,6 50 27 50 27 SW 1014,8 10
04.12.2019 22:00:00 8,6 6,4 54 29 54 29 SW 1015,2 10
04.12.2019 21:00:00 8,6 6,3 50 27 50 27 SW 1015,2 10
04.12.2019 20:00:00 8,6 6,0 50 27 50 27 SW 1015,3 10
04.12.2019 19:00:00 8,6 6,2 48 26 50 27 SW 1015,7 10
04.12.2019 18:00:00 8,6 5,5 48 26 50 27 SW 1015,6 10
04.12.2019 17:00:00 8,5 5,8 48 26 47 25 SW 1015,7 10
04.12.2019 16:00:00 8,6 6,0 48 26 50 27 SW 1015,9 10

tt = Température de l'air
td = dewpoint
ff = Vitesse du vent
fx = gusts
dd = Direction du vent
ppp = reduced air pressure
vv = visibility

stations d'obs. à proximité